Content
SEND FEEDBACK

Daily
Averages
Monthly
Summary
United States of America

NEW YORK - CENTRAL PARK, NEW YORK


Home > North America > United States > New York
Elevation: 14 feet     Latitude: 40 47N     Longitude: 073 58W

WEATHER
 
SELECT A DAY
Number of Records: 148,168;   Date Range: 11/1/95 - 8/12/14
 
SHARE

PRINT THIS DATA

[ ← Previous Day ]
WEATHER ALMANAC - JANUARY 31, 2013
[ Next Day → ]
[ °C ]   °F
Weather ElementAverageHighLow
Temperature47.5 °F60.1 °F (1:51 am)30 °F (10:51 pm)
Dewpoint34.7 °F57 °F (1:51 am)8.1 °F (10:51 pm)
Humidity64.7 %96 % (4:03 am)33 % (3:51 pm)
Barometer29.34 in29.78 in (11:51 pm)29.05 in (5:51 am)
Wind Speed12.6 mph23 mph (6:58 am)
Wind Gust43.7 mph (6:58 am)
Weather ElementAverage
Visibility6.8 mi
Wind DirectionSW (220 °)

Weather ElementTotal
Precipitation2.22 in
Heating Degree Days20 (Base 65)
Averaged from 33 records on January 31, 2013
WEATHER CONDITIONS BREAKOUT
WIND DIRECTION BREAKOUT
WEATHER BY HOUR - JANUARY 31, 2013
[ °C ]   °F
Local TimeTemperatureDewpointHumidityBarometerVisibilityWind DirectionWind SpeedGust SpeedPrecipitationEventsConditions
1:51 AM60.1 °F57.0 °F90 %29.22 in4.0 miSouth (170°)13.8 mph31.1 mph0.06 inRainLight Rain
2:51 AM57.0 °F55.0 °F93 %29.15 in6.0 miSouth (180°)12.7 mph20.7 mph0.07 inRainLight Rain
3:35 AM57.0 °F55.0 °F93 %29.11 in2.5 miSouth (190°)9.2 mph23.0 mph0.06 inRainRain
3:43 AM57.0 °F55.0 °F93 %29.10 in1.2 miSouth (190°)9.2 mph21.9 mph0.14 inRainHeavy Rain
3:51 AM57.9 °F55.9 °F93 %29.07 in1.5 miSSW (200°)11.5 mph24.2 mph0.20 inRainHeavy Rain
4:03 AM57.0 °F55.9 °F96 %29.09 in2.0 miSouth (180°)9.2 mph23.0 mph0.06 inRainRain
4:14 AM59.0 °F55.9 °F90 %29.18 in0.8 miWSW (240°)19.6 mph42.6 mph0.10 inRainRain
4:22 AM57.9 °F55.9 °F93 %29.16 in0.5 miSW (220°)9.2 mph42.6 mph0.32 inFog-RainRain
4:24 AM57.9 °F55.9 °F93 %29.16 in1.2 miSW (230°)11.5 mph28.8 mph0.32 inRainLight Rain
4:27 AM57.9 °F55.9 °F93 %29.17 in3.0 miSW (230°)10.4 mph24.2 mph0.33 inRainLight Rain
4:51 AM59.0 °F55.0 °F87 %29.12 in4.0 miWSW (250°)8.1 mph18.4 mph0.35 inRainLight Rain
5:51 AM57.0 °F53.1 °F87 %29.05 in10.0 miVariable3.5 mph0.09 inOvercast
6:45 AM55.4 °F51.8 °F88 %29.11 in2.5 miSW (230°)12.7 mph27.6 mph0.02 inRainRain
6:51 AM54.0 °F51.1 °F90 %29.13 in1.5 miWest (280°)19.6 mph35.7 mph0.07 inRainRain
6:58 AM51.1 °F44.1 °F77 %29.16 in4.0 miWest (280°)23.0 mph43.7 mph0.01 inRainLight Rain
7:07 AM50.0 °F39.0 °F66 %29.18 in10.0 miWest (280°)15.0 mph43.7 mph0.01 inOvercast
7:51 AM48.0 °F32.0 °F54 %29.20 in10.0 miWest (280°)15.0 mph26.5 mph0.01 inMostly Cloudy
8:51 AM46.0 °F30.0 °F54 %29.28 in10.0 miNorthScattered Clouds
9:51 AM44.1 °F25.0 °F47 %29.36 in10.0 miWNW (290°)16.1 mph36.8 mphMostly Cloudy
10:51 AM44.1 °F19.9 °F38 %29.39 in10.0 miWest (280°)20.7 mph40.3 mphClear
11:51 AM44.1 °F19.0 °F37 %29.42 in10.0 miWest (280°)11.5 mph36.8 mphScattered Clouds
12:51 PM45.0 °F19.0 °F36 %29.42 in10.0 miWNW (300°)10.4 mph27.6 mphPartly Cloudy
1:51 PM43.0 °F17.1 °F35 %29.45 in10.0 miNorthPartly Cloudy
2:51 PM43.0 °F18.0 °F37 %29.49 in10.0 miNorthPartly Cloudy
3:51 PM41.0 °F14.0 °F33 %29.53 in10.0 miWest (280°)6.9 mph23.0 mphPartly Cloudy
4:51 PM37.9 °F15.1 °F39 %29.58 in10.0 miWest (280°)13.8 mph35.7 mphScattered Clouds
5:51 PM35.1 °F12.9 °F40 %29.64 in10.0 miWest (280°)10.4 mph26.5 mphClear
6:51 PM34.0 °F12.9 °F42 %29.69 in10.0 miWest (270°)9.2 mph25.3 mphClear
7:51 PM33.1 °F12.0 °F42 %29.70 in10.0 miWNW (290°)12.7 mph33.4 mphClear
8:51 PM32.0 °F17.1 °F54 %29.73 in10.0 miWest (260°)15.0 mph23.0 mphScattered Clouds
9:51 PM30.9 °F12.0 °F46 %29.75 in10.0 miWest (270°)13.8 mph31.1 mphClear
10:51 PM30.0 °F8.1 °F40 %29.76 in10.0 miWNW (290°)16.1 mph26.5 mphClear
11:51 PM30.0 °F8.1 °F40 %29.78 in10.0 miWest (260°)6.9 mph18.4 mphClear
Hourly data recorded from KNYC, located miles away from New York - Central Park, New York







STORIES FROM OUR PARTNERS